TimeMST,TemperatureF,Dew PointF,Humidity,Sea Level PressureIn,VisibilityMPH,Wind Direction,Wind SpeedMPH,Gust SpeedMPH,PrecipitationIn,Events,Conditions,WindDirDegrees,DateUTC
12:55 AM,19.0,16.0,88,29.81,10.0,WNW,3.5,-,N/A,,Mostly Cloudy,290,2012-12-16 07:55:00
1:55 AM,19.9,17.1,89,29.82,10.0,West,4.6,-,N/A,,Scattered Clouds,270,2012-12-16 08:55:00
2:55 AM,19.9,17.1,89,29.81,10.0,Calm,Calm,-,N/A,,Overcast,0,2012-12-16 09:55:00
3:55 AM,19.9,17.1,89,29.81,10.0,Calm,Calm,-,N/A,,Overcast,0,2012-12-16 10:55:00
4:55 AM,19.9,17.1,89,29.81,10.0,Calm,Calm,-,N/A,,Overcast,0,2012-12-16 11:55:00
5:55 AM,21.0,18.0,88,29.81,10.0,ENE,3.5,-,N/A,,Mostly Cloudy,60,2012-12-16 12:55:00
6:55 AM,21.9,19.0,89,29.81,10.0,NE,3.5,-,N/A,,Overcast,50,2012-12-16 13:55:00
7:55 AM,21.9,19.0,89,29.80,10.0,East,4.6,-,N/A,,Overcast,100,2012-12-16 14:55:00
8:55 AM,24.1,21.0,88,29.80,2.5,East,8.1,-,0.00,Snow,Light Snow,100,2012-12-16 15:55:00
9:05 AM,24.8,21.2,86,29.72,1.2,East,10.4,-,0.00,Snow,Light Snow,90,2012-12-16 16:05:00
9:25 AM,24.8,21.2,86,29.70,3.0,East,11.5,-,0.01,Snow,Light Snow,80,2012-12-16 16:25:00
9:34 AM,24.8,21.2,86,29.70,7.0,East,10.4,-,0.01,Snow,Light Snow,100,2012-12-16 16:34:00
9:55 AM,26.1,23.0,88,29.78,4.0,East,10.4,-,0.01,Snow,Light Snow,90,2012-12-16 16:55:00
10:55 AM,27.0,23.0,85,29.76,10.0,East,10.4,-,0.00,,Overcast,80,2012-12-16 17:55:00
11:55 AM,30.9,26.1,82,29.72,10.0,East,11.5,-,N/A,,Mostly Cloudy,100,2012-12-16 18:55:00
12:55 PM,34.0,25.0,70,29.68,10.0,ESE,12.7,-,N/A,,Clear,120,2012-12-16 19:55:00
1:55 PM,36.0,25.0,64,29.67,10.0,ESE,12.7,-,N/A,,Clear,110,2012-12-16 20:55:00
2:55 PM,36.0,25.0,64,29.68,10.0,East,10.4,-,N/A,,Clear,100,2012-12-16 21:55:00
3:55 PM,30.9,25.0,79,29.70,10.0,ENE,11.5,-,N/A,,Clear,60,2012-12-16 22:55:00
4:55 PM,24.1,21.0,88,29.75,10.0,North,13.8,-,N/A,,Partly Cloudy,360,2012-12-16 23:55:00
5:55 PM,23.0,21.0,92,29.78,7.0,North,13.8,-,N/A,,Overcast,10,2012-12-17 00:55:00
6:55 PM,24.1,21.9,91,29.80,7.0,NNW,3.5,-,N/A,,Overcast,340,2012-12-17 01:55:00
7:46 PM,24.8,21.2,86,29.73,7.0,Calm,Calm,-,N/A,,Overcast,0,2012-12-17 02:46:00
7:55 PM,23.0,21.0,92,29.81,7.0,WNW,3.5,-,N/A,,Overcast,290,2012-12-17 02:55:00
8:55 PM,21.9,21.0,96,29.81,7.0,Calm,Calm,-,N/A,,Overcast,0,2012-12-17 03:55:00
9:19 PM,21.2,19.4,93,29.73,7.0,NW,3.5,-,N/A,,Overcast,320,2012-12-17 04:19:00
9:28 PM,21.2,19.4,93,29.73,7.0,WNW,3.5,-,N/A,,Overcast,300,2012-12-17 04:28:00
9:55 PM,23.0,21.0,92,29.80,7.0,WNW,3.5,-,N/A,,Overcast,300,2012-12-17 04:55:00
10:55 PM,24.1,21.9,91,29.80,7.0,NW,5.8,-,N/A,,Overcast,310,2012-12-17 05:55:00
11:36 PM,24.8,23.0,93,29.73,5.0,WNW,6.9,-,N/A,,Overcast,300,2012-12-17 06:36:00
11:55 PM,24.1,23.0,96,29.79,6.0,WNW,6.9,-,N/A,,Overcast,290,2012-12-17 06:55:00